| time (UTC) | temp F | wind direction | speed MPH | gust MPH | rain 1hr in | rain 24hr in | rain mn in | humidity % | barometer mb |
| 20260506091030 | 56 | 216 | 7.0 | 16.0 | 0.00 | 0.00 | 0.00 | 91 | 1010.7 |
| 20260506090531 | 56 | 246 | 8.0 | 16.0 | 0.00 | 0.00 | 0.00 | 91 | 1010.8 |
| 20260506090025 | 56 | 241 | 8.0 | 17.0 | 0.00 | 0.00 | 0.00 | 91 | 1010.8 |
| 20260506085518 | 57 | 231 | 9.0 | 17.0 | 0.00 | 0.00 | 0.00 | 91 | 1010.7 |
| 20260506085012 | 57 | 271 | 10.0 | 20.0 | 0.00 | 0.00 | 0.00 | 91 | 1010.8 |
| 20260506084507 | 57 | 239 | 10.0 | 20.0 | 0.00 | 0.00 | 0.00 | 91 | 1010.8 |
| 20260506083455 | 57 | 234 | 13.0 | 23.0 | 0.00 | 0.00 | 0.00 | 91 | 1010.7 |
| 20260506082948 | 57 | 229 | 13.0 | 23.0 | 0.00 | 0.00 | 0.00 | 91 | 1010.7 |
| 20260506082442 | 57 | 257 | 12.0 | 22.0 | 0.00 | 0.00 | 0.00 | 91 | 1010.7 |
| 20260506081940 | 57 | 212 | 12.0 | 22.0 | 0.00 | 0.00 | 0.00 | 91 | 1010.9 |
| 20260506081441 | 57 | 253 | 11.0 | 21.0 | 0.00 | 0.00 | 0.00 | 91 | 1010.8 |
| 20260506080440 | 57 | 232 | 10.0 | 23.0 | 0.00 | 0.00 | 0.00 | 90 | 1011.0 |
| 20260506073441 | 57 | 231 | 9.0 | 19.0 | 0.00 | 0.00 | 0.00 | 90 | 1011.3 |
| 20260506072940 | 57 | 245 | 11.0 | 20.0 | 0.00 | 0.00 | 0.00 | 90 | 1011.2 |
| 20260506072441 | 57 | 248 | 11.0 | 20.0 | 0.00 | 0.00 | 0.00 | 90 | 1011.2 |
| 20260506071940 | 57 | 216 | 11.0 | 19.0 | 0.00 | 0.00 | 0.00 | 90 | 1011.3 |
| 20260506071439 | 57 | 228 | 11.0 | 20.0 | 0.00 | 0.00 | 0.00 | 90 | 1011.3 |
| 20260506070940 | 57 | 219 | 10.0 | 20.0 | 0.00 | 0.00 | 0.00 | 90 | 1011.3 |
| 20260506070440 | 57 | 229 | 10.0 | 19.0 | 0.00 | 0.00 | 0.00 | 90 | 1011.3 |
| 20260506062352 | 57 | 224 | 10.0 | 16.0 | 0.00 | 0.00 | 0.00 | 89 | 1011.2 |
| 20260506061846 | 57 | 212 | 10.0 | 17.0 | 0.00 | 0.00 | 0.00 | 89 | 1011.1 |
| 20260506061341 | 58 | 252 | 10.0 | 19.0 | 0.00 | 0.00 | 0.00 | 89 | 1011.1 |
| 20260506060328 | 58 | 263 | 11.0 | 18.0 | 0.00 | 0.00 | 0.00 | 89 | 1011.1 |
| 20260506051240 | 58 | 248 | 11.0 | 24.0 | 0.00 | 0.00 | 0.00 | 89 | 1011.3 |
| 20260506050741 | 58 | 245 | 12.0 | 20.0 | 0.00 | 0.00 | 0.00 | 89 | 1011.3 |
| 20260506044739 | 58 | 286 | 12.0 | 23.0 | 0.00 | 0.00 | 0.00 | 89 | 1011.4 |
| 20260506044240 | 58 | 221 | 12.0 | 22.0 | 0.00 | 0.00 | 0.00 | 89 | 1011.3 |
| 20260506043241 | 58 | 229 | 13.0 | 21.0 | 0.00 | 0.00 | 0.00 | 89 | 1011.3 |
| 20260506042741 | 58 | 269 | 13.0 | 21.0 | 0.00 | 0.00 | 0.00 | 89 | 1011.3 |
| 20260506042240 | 58 | 233 | 12.0 | 21.0 | 0.00 | 0.00 | 0.00 | 89 | 1011.3 |
| 20260506041740 | 58 | 231 | 12.0 | 21.0 | 0.00 | 0.00 | 0.00 | 89 | 1011.3 |
| 20260506041239 | 58 | 255 | 13.0 | 21.0 | 0.00 | 0.00 | 0.00 | 89 | 1011.3 |
| 20260506040741 | 58 | 226 | 13.0 | 22.0 | 0.00 | 0.00 | 0.00 | 89 | 1011.4 |
| 20260506040237 | 58 | 237 | 12.0 | 22.0 | 0.00 | 0.00 | 0.00 | 89 | 1011.5 |
| 20260506035738 | 58 | 219 | 10.0 | 23.0 | 0.00 | 0.00 | 0.00 | 89 | 1011.4 |
| 20260506035239 | 58 | 221 | 10.0 | 23.0 | 0.00 | 0.00 | 0.00 | 89 | 1011.4 |
| 20260506034738 | 58 | 243 | 10.0 | 18.0 | 0.00 | 0.00 | 0.00 | 89 | 1011.4 |
| 20260506033739 | 57 | 223 | 10.0 | 20.0 | 0.00 | 0.00 | 0.00 | 89 | 1011.6 |
| 20260506033239 | 58 | 230 | 10.0 | 18.0 | 0.00 | 0.00 | 0.00 | 89 | 1011.6 |
| 20260506032738 | 58 | 252 | 11.0 | 19.0 | 0.00 | 0.00 | 0.00 | 89 | 1011.5 |
| 20260506032237 | 58 | 232 | 10.0 | 19.0 | 0.00 | 0.00 | 0.00 | 89 | 1011.4 |
| 20260506031738 | 58 | 236 | 10.0 | 18.0 | 0.00 | 0.00 | 0.00 | 89 | 1011.3 |
| 20260506031239 | 58 | 252 | 11.0 | 21.0 | 0.00 | 0.00 | 0.00 | 89 | 1011.5 |
| 20260506030733 | 58 | 230 | 11.0 | 21.0 | 0.00 | 0.00 | 0.00 | 89 | 1011.5 |
| 20260506030234 | 58 | 224 | 10.0 | 20.0 | 0.00 | 0.00 | 0.00 | 89 | 1011.6 |
| 20260506025733 | 58 | 242 | 11.0 | 20.0 | 0.00 | 0.00 | 0.00 | 89 | 1011.6 |
| 20260506025233 | 58 | 226 | 11.0 | 20.0 | 0.00 | 0.00 | 0.00 | 89 | 1011.5 |
| 20260506024233 | 58 | 238 | 10.0 | 20.0 | 0.00 | 0.00 | 0.00 | 89 | 1011.6 |
| 20260506023734 | 58 | 230 | 10.0 | 21.0 | 0.00 | 0.00 | 0.00 | 89 | 1011.6 |
| 20260506023233 | 58 | 230 | 11.0 | 21.0 | 0.00 | 0.00 | 0.00 | 89 | 1011.6 |
| 20260506022735 | 58 | 248 | 10.0 | 20.0 | 0.00 | 0.00 | 0.00 | 89 | 1011.7 |
| 20260506022229 | 58 | 219 | 9.0 | 17.0 | 0.00 | 0.00 | 0.00 | 89 | 1011.6 |
| 20260506021730 | 58 | 239 | 10.0 | 17.0 | 0.00 | 0.00 | 0.00 | 89 | 1011.6 |
| 20260506021229 | 58 | 231 | 11.0 | 18.0 | 0.00 | 0.00 | 0.00 | 89 | 1011.5 |
| 20260506020730 | 58 | 224 | 11.0 | 23.0 | 0.00 | 0.00 | 0.00 | 89 | 1011.6 |
| 20260506015730 | 58 | 214 | 11.0 | 20.0 | 0.00 | 0.00 | 0.00 | 89 | 1011.4 |
| 20260506015229 | 59 | 222 | 11.0 | 21.0 | 0.00 | 0.00 | 0.00 | 89 | 1011.4 |
| 20260506014730 | 59 | 219 | 12.0 | 21.0 | 0.00 | 0.00 | 0.00 | 89 | 1011.3 |
| 20260506014230 | 58 | 201 | 12.0 | 19.0 | 0.00 | 0.00 | 0.00 | 88 | 1011.2 |
| 20260506013729 | 58 | 233 | 12.0 | 23.0 | 0.00 | 0.00 | 0.00 | 88 | 1011.3 |
| 20260506012718 | 58 | 239 | 13.0 | 26.0 | 0.00 | 0.00 | 0.00 | 88 | 1011.0 |
| 20260506012216 | 58 | 231 | 13.0 | 26.0 | 0.00 | 0.00 | 0.00 | 88 | 1011.1 |
| 20260506011215 | 59 | 219 | 14.0 | 25.0 | 0.00 | 0.00 | 0.00 | 88 | 1011.0 |
| 20260506010213 | 59 | 247 | 16.0 | 26.0 | 0.00 | 0.00 | 0.00 | 87 | 1010.7 |
| 20260506005710 | 60 | 224 | 16.0 | 26.0 | 0.00 | 0.00 | 0.00 | 87 | 1010.9 |
| 20260506005209 | 59 | 264 | 15.0 | 23.0 | 0.00 | 0.00 | 0.00 | 87 | 1010.7 |
| 20260506004709 | 59 | 246 | 15.0 | 27.0 | 0.00 | 0.00 | 0.00 | 87 | 1010.7 |
| 20260506004207 | 59 | 229 | 16.0 | 27.0 | 0.00 | 0.00 | 0.00 | 87 | 1010.7 |
| 20260506003708 | 59 | 229 | 16.0 | 26.0 | 0.00 | 0.00 | 0.00 | 87 | 1010.5 |
| 20260506002707 | 59 | 212 | 15.0 | 24.0 | 0.00 | 0.00 | 0.00 | 87 | 1010.4 |
| 20260506002207 | 60 | 220 | 16.0 | 26.0 | 0.00 | 0.00 | 0.00 | 87 | 1010.4 |
| 20260506001709 | 59 | 248 | 16.0 | 26.0 | 0.00 | 0.00 | 0.00 | 87 | 1010.3 |
| 20260506001207 | 59 | 226 | 16.0 | 26.0 | 0.00 | 0.00 | 0.00 | 87 | 1010.3 |
| 20260506000702 | 59 | 226 | 16.0 | 27.0 | 0.00 | 0.00 | 0.00 | 87 | 1010.3 |
| 20260506000156 | 59 | 231 | 15.0 | 27.0 | 0.00 | 0.00 | 0.00 | 87 | 1010.1 |
| 20260505235650 | 59 | 227 | 15.0 | 26.0 | 0.00 | 0.00 | 0.00 | 87 | 1010.2 |
| 20260505235144 | 59 | 236 | 16.0 | 25.0 | 0.00 | 0.00 | 0.00 | 87 | 1010.1 |
| 20260505234638 | 59 | 227 | 17.0 | 29.0 | 0.00 | 0.00 | 0.00 | 87 | 1009.9 |
| 20260505234131 | 59 | 253 | 18.0 | 29.0 | 0.00 | 0.00 | 0.00 | 87 | 1009.7 |
| 20260505233626 | 59 | 245 | 18.0 | 29.0 | 0.00 | 0.00 | 0.00 | 87 | 1009.6 |
| 20260505232614 | 60 | 256 | 17.0 | 27.0 | 0.00 | 0.00 | 0.00 | 87 | 1009.5 |
| 20260505232107 | 60 | 219 | 16.0 | 27.0 | 0.00 | 0.00 | 0.00 | 86 | 1009.6 |
| 20260505230548 | 60 | 231 | 16.0 | 28.0 | 0.00 | 0.00 | 0.00 | 86 | 1009.4 |
| 20260505230041 | 60 | 236 | 16.0 | 28.0 | 0.00 | 0.00 | 0.00 | 86 | 1009.4 |
| 20260505225535 | 60 | 238 | 15.0 | 27.0 | 0.00 | 0.00 | 0.00 | 86 | 1009.3 |
| 20260505224524 | 60 | 239 | 16.0 | 27.0 | 0.00 | 0.00 | 0.00 | 86 | 1009.2 |
| 20260505224018 | 61 | 232 | 16.0 | 27.0 | 0.00 | 0.00 | 0.00 | 85 | 1009.1 |
| 20260505223512 | 61 | 232 | 17.0 | 30.0 | 0.00 | 0.00 | 0.00 | 85 | 1009.1 |
| 20260505222500 | 61 | 200 | 16.0 | 28.0 | 0.00 | 0.00 | 0.00 | 85 | 1009.1 |
| 20260505221954 | 61 | 238 | 16.0 | 28.0 | 0.00 | 0.00 | 0.00 | 84 | 1009.1 |
| 20260505221448 | 61 | 221 | 17.0 | 29.0 | 0.00 | 0.00 | 0.00 | 84 | 1008.9 |
| 20260505220942 | 61 | 215 | 17.0 | 29.0 | 0.00 | 0.00 | 0.00 | 84 | 1008.9 |
| 20260505220435 | 61 | 236 | 16.0 | 28.0 | 0.00 | 0.00 | 0.00 | 84 | 1008.9 |
| 20260505215930 | 61 | 224 | 17.0 | 28.0 | 0.00 | 0.00 | 0.00 | 85 | 1009.0 |
| 20260505215424 | 61 | 226 | 18.0 | 29.0 | 0.00 | 0.00 | 0.00 | 85 | 1009.1 |
| 20260505214917 | 60 | 236 | 19.0 | 34.0 | 0.00 | 0.00 | 0.00 | 85 | 1008.9 |
| 20260505213906 | 61 | 223 | 19.0 | 31.0 | 0.00 | 0.00 | 0.00 | 85 | 1008.8 |
| 20260505213400 | 61 | 238 | 18.0 | 28.0 | 0.00 | 0.00 | 0.00 | 84 | 1008.7 |
| 20260505212853 | 61 | 250 | 18.0 | 30.0 | 0.00 | 0.00 | 0.00 | 84 | 1008.7 |
| 20260505212347 | 61 | 262 | 20.0 | 34.0 | 0.00 | 0.00 | 0.00 | 84 | 1008.6 |
| 20260505211841 | 61 | 210 | 20.0 | 34.0 | 0.00 | 0.00 | 0.00 | 84 | 1008.6 |
| 20260505211336 | 61 | 228 | 18.0 | 30.0 | 0.00 | 0.00 | 0.00 | 84 | 1008.6 |
| 20260505210830 | 61 | 223 | 18.0 | 27.0 | 0.00 | 0.00 | 0.00 | 84 | 1008.5 |
| 20260505210325 | 61 | 243 | 18.0 | 27.0 | 0.00 | 0.00 | 0.00 | 84 | 1008.5 |
| 20260505205817 | 61 | 224 | 19.0 | 32.0 | 0.00 | 0.00 | 0.00 | 84 | 1008.4 |
| 20260505205318 | 62 | 239 | 19.0 | 32.0 | 0.00 | 0.00 | 0.00 | 83 | 1008.5 |
| 20260505204818 | 62 | 242 | 19.0 | 31.0 | 0.00 | 0.00 | 0.00 | 83 | 1008.5 |
| 20260505204320 | 62 | 221 | 18.0 | 31.0 | 0.00 | 0.00 | 0.00 | 83 | 1008.4 |
| 20260505203734 | 62 | 230 | 17.0 | 30.0 | 0.00 | 0.00 | 0.00 | 83 | 1008.4 |
| 20260505203234 | 62 | 222 | 16.0 | 30.0 | 0.00 | 0.00 | 0.00 | 83 | 1008.5 |
| 20260505202234 | 62 | 229 | 16.0 | 27.0 | 0.00 | 0.00 | 0.00 | 83 | 1008.5 |
| 20260505201734 | 62 | 228 | 15.0 | 27.0 | 0.00 | 0.00 | 0.00 | 83 | 1008.6 |
| 20260505201234 | 62 | 226 | 14.0 | 25.0 | 0.00 | 0.00 | 0.00 | 84 | 1008.7 |
| 20260505200734 | 62 | 239 | 14.0 | 25.0 | 0.00 | 0.00 | 0.00 | 84 | 1008.7 |
| 20260505200233 | 62 | 210 | 13.0 | 25.0 | 0.00 | 0.00 | 0.00 | 84 | 1008.9 |
| 20260505195733 | 62 | 226 | 12.0 | 20.0 | 0.00 | 0.00 | 0.00 | 84 | 1009.1 |
| 20260505195229 | 61 | 241 | 13.0 | 22.0 | 0.00 | 0.00 | 0.00 | 85 | 1009.0 |
| 20260505194729 | 61 | 222 | 13.0 | 22.0 | 0.00 | 0.00 | 0.00 | 84 | 1009.1 |
| 20260505194228 | 62 | 230 | 11.0 | 22.0 | 0.00 | 0.00 | 0.00 | 84 | 1009.3 |
| 20260505193702 | 62 | 203 | 10.0 | 21.0 | 0.00 | 0.00 | 0.00 | 84 | 1009.4 |
| 20260505192200 | 63 | 205 | 9.0 | 16.0 | 0.00 | 0.00 | 0.00 | 84 | 1009.6 |
| 20260505191702 | 63 | 200 | 10.0 | 17.0 | 0.00 | 0.00 | 0.00 | 84 | 1009.7 |
| 20260505191202 | 62 | 215 | 10.0 | 21.0 | 0.00 | 0.00 | 0.00 | 84 | 1009.8 |
| 20260505190700 | 62 | 214 | 8.0 | 21.0 | 0.00 | 0.00 | 0.00 | 84 | 1009.9 |
| 20260505190201 | 62 | 224 | 7.0 | 14.0 | 0.00 | 0.00 | 0.00 | 86 | 1010.0 |
| 20260505185702 | 62 | 257 | 8.0 | 15.0 | 0.00 | 0.00 | 0.00 | 85 | 1010.2 |
| 20260505185201 | 62 | 243 | 7.0 | 15.0 | 0.00 | 0.00 | 0.00 | 85 | 1010.3 |
| 20260505183200 | 61 | 236 | 11.0 | 18.0 | 0.00 | 0.00 | 0.00 | 85 | 1010.6 |
| 20260505182201 | 62 | 224 | 12.0 | 19.0 | 0.00 | 0.00 | 0.00 | 85 | 1010.6 |
| 20260505181701 | 62 | 217 | 12.0 | 18.0 | 0.00 | 0.00 | 0.00 | 85 | 1010.5 |
| 20260505180701 | 62 | 226 | 11.0 | 18.0 | 0.00 | 0.00 | 0.00 | 85 | 1010.6 |
| 20260505180202 | 62 | 233 | 10.0 | 18.0 | 0.00 | 0.00 | 0.00 | 85 | 1010.6 |
| 20260505175701 | 62 | 226 | 9.0 | 17.0 | 0.00 | 0.00 | 0.00 | 86 | 1010.8 |
| 20260505175158 | 61 | 217 | 8.0 | 15.0 | 0.00 | 0.00 | 0.00 | 86 | 1010.8 |
| 20260505174658 | 62 | 233 | 8.0 | 15.0 | 0.00 | 0.00 | 0.00 | 86 | 1010.8 |
| 20260505174156 | 62 | 210 | 8.0 | 15.0 | 0.00 | 0.00 | 0.00 | 87 | 1010.8 |
| 20260505173657 | 61 | 274 | 8.0 | 15.0 | 0.00 | 0.00 | 0.00 | 86 | 1010.8 |
| 20260505173157 | 61 | 218 | 7.0 | 14.0 | 0.00 | 0.00 | 0.00 | 87 | 1010.9 |
| 20260505172658 | 60 | 264 | 8.0 | 16.0 | 0.00 | 0.00 | 0.00 | 87 | 1010.9 |
| 20260505172156 | 60 | 228 | 8.0 | 16.0 | 0.00 | 0.00 | 0.00 | 87 | 1010.9 |
| 20260505171658 | 60 | 286 | 9.0 | 15.0 | 0.00 | 0.00 | 0.00 | 87 | 1011.0 |
| 20260505170654 | 61 | 232 | 8.0 | 14.0 | 0.00 | 0.00 | 0.00 | 86 | 1011.0 |
| 20260505165655 | 61 | 231 | 7.0 | 13.0 | 0.00 | 0.00 | 0.00 | 86 | 1011.1 |
| 20260505164655 | 61 | 223 | 8.0 | 14.0 | 0.00 | 0.00 | 0.00 | 86 | 1011.1 |
| 20260505163654 | 62 | 220 | 8.0 | 16.0 | 0.00 | 0.00 | 0.00 | 86 | 1011.3 |
| 20260505162653 | 62 | 219 | 7.0 | 13.0 | 0.00 | 0.00 | 0.00 | 86 | 1011.4 |
| 20260505162151 | 61 | 202 | 7.0 | 13.0 | 0.00 | 0.00 | 0.00 | 87 | 1011.3 |
| 20260505161650 | 61 | 204 | 6.0 | 12.0 | 0.00 | 0.00 | 0.00 | 87 | 1011.5 |
| 20260505161150 | 61 | 232 | 6.0 | 12.0 | 0.00 | 0.00 | 0.00 | 87 | 1011.6 |
| 20260505160150 | 61 | 236 | 7.0 | 13.0 | 0.00 | 0.00 | 0.00 | 87 | 1011.7 |
| 20260505153147 | 62 | 212 | 8.0 | 12.0 | 0.00 | 0.00 | 0.00 | 86 | 1011.7 |
| 20260505152648 | 61 | 234 | 6.0 | 12.0 | 0.00 | 0.00 | 0.00 | 86 | 1011.7 |
| 20260505151645 | 61 | 252 | 7.0 | 11.0 | 0.00 | 0.00 | 0.00 | 87 | 1012.0 |
| 20260505150643 | 60 | 221 | 7.0 | 13.0 | 0.00 | 0.00 | 0.00 | 86 | 1012.0 |
| 20260505150142 | 60 | 275 | 8.0 | 13.0 | 0.00 | 0.00 | 0.00 | 88 | 1012.0 |
| 20260505140549 | 60 | 238 | 8.0 | 14.0 | 0.00 | 0.00 | 0.00 | 88 | 1011.7 |
| 20260505124925 | 58 | 233 | 6.0 | 12.0 | 0.00 | 0.00 | 0.00 | 90 | 1011.5 |
| 20260505124425 | 57 | 214 | 5.0 | 10.0 | 0.00 | 0.00 | 0.00 | 90 | 1011.4 |
| 20260505123413 | 57 | 234 | 5.0 | 11.0 | 0.00 | 0.00 | 0.00 | 90 | 1011.4 |
| 20260505122401 | 58 | 224 | 5.0 | 10.0 | 0.00 | 0.00 | 0.00 | 89 | 1011.4 |
| 20260505121855 | 58 | 220 | 5.0 | 10.0 | 0.00 | 0.00 | 0.00 | 89 | 1011.5 |
| 20260505121349 | 57 | 231 | 5.0 | 9.0 | 0.00 | 0.00 | 0.00 | 90 | 1011.4 |
| 20260505120336 | 57 | 260 | 4.0 | 10.0 | 0.00 | 0.00 | 0.00 | 90 | 1011.6 |
| 20260505115830 | 57 | 228 | 4.0 | 9.0 | 0.00 | 0.00 | 0.00 | 90 | 1011.5 |
| 20260505115324 | 57 | 233 | 5.0 | 10.0 | 0.00 | 0.00 | 0.00 | 90 | 1011.4 |
| 20260505114819 | 57 | 221 | 5.0 | 10.0 | 0.00 | 0.00 | 0.00 | 90 | 1011.5 |
| 20260505114313 | 57 | 256 | 4.0 | 9.0 | 0.00 | 0.00 | 0.00 | 90 | 1011.4 |
| 20260505113301 | 57 | 232 | 5.0 | 9.0 | 0.00 | 0.00 | 0.00 | 90 | 1011.5 |
| 20260505112755 | 56 | 244 | 5.0 | 11.0 | 0.00 | 0.00 | 0.00 | 90 | 1011.5 |
| 20260505112250 | 56 | 264 | 4.0 | 11.0 | 0.00 | 0.00 | 0.00 | 90 | 1011.6 |
| 20260505111749 | 56 | 257 | 3.0 | 9.0 | 0.00 | 0.00 | 0.00 | 90 | 1011.4 |
| 20260505111250 | 56 | 231 | 4.0 | 8.0 | 0.00 | 0.00 | 0.00 | 90 | 1011.6 |
| 20260505110750 | 56 | 214 | 4.0 | 9.0 | 0.00 | 0.00 | 0.00 | 90 | 1011.6 |
| 20260505110249 | 56 | 254 | 4.0 | 9.0 | 0.00 | 0.00 | 0.00 | 90 | 1011.4 |
| 20260505101748 | 54 | 265 | 6.0 | 11.0 | 0.00 | 0.00 | 0.00 | 92 | 1010.8 |
| 20260505101248 | 54 | 233 | 5.0 | 10.0 | 0.00 | 0.00 | 0.00 | 92 | 1010.7 |
| 20260505095240 | 53 | 251 | 3.0 | 9.0 | 0.00 | 0.00 | 0.00 | 92 | 1010.5 |
| 20260505094741 | 53 | 219 | 3.0 | 9.0 | 0.00 | 0.00 | 0.00 | 92 | 1010.4 |
| 20260505094241 | 53 | 236 | 3.0 | 8.0 | 0.00 | 0.00 | 0.00 | 92 | 1010.5 |
| 20260505093736 | 53 | 233 | 3.0 | 8.0 | 0.00 | 0.00 | 0.00 | 92 | 1010.5 |
| 20260505093237 | 53 | 245 | 3.0 | 6.0 | 0.00 | 0.00 | 0.00 | 91 | 1010.5 |
| 20260505092736 | 53 | 234 | 3.0 | 6.0 | 0.00 | 0.00 | 0.00 | 91 | 1010.5 |
| 20260505092236 | 53 | 221 | 2.0 | 6.0 | 0.00 | 0.00 | 0.00 | 91 | 1010.5 |
| 20260505091737 | 53 | 261 | 2.0 | 6.0 | 0.00 | 0.00 | 0.00 | 91 | 1010.5 |